Falfurrias, TX

7:21 AM CST on February 26, 2017 (GMT -0600)
Falfurrias

Weather History for KBKS - January, 2012

Change the Weather History Date:

Monday, January 2, 2012

  Actual Average (KNQI) Record (KNQI)
Temperature  
Mean Temperature 53 °F -  
Max Temperature 64 °F 67 °F 84 °F (2004)
Min Temperature 42 °F 46 °F 28 °F (2008)
Degree Days  
Heating Degree Days 12    
Growing Degree Days 3 (Base 50)    
Moisture  
Dew Point 24 °F    
Average Humidity 36    
Maximum Humidity 61    
Minimum Humidity 16    
Precipitation  
Precipitation 0.00 in - - ()
Sea Level Pressure  
Sea Level Pressure 30.62 in    
Wind  
Wind Speed 8 mph (North)    
Max Wind Speed 16 mph    
Max Gust Speed 23 mph    
Visibility 10 miles    
Events      
Averages and records for this station are not official NWS values.
T = Trace of Precipitation, MM = Missing Value Source: NWS Daily Summary

Daily Weather History Graph

Daily Weather History Graph

Search for Another Location

Airport or City:

Trip Planner

Search our weather history database for the weather conditions in past years. The results will help you decide how hot, cold, wet, or windy it might be!

Date:

Astronomy

Jan. 02, 2012 Rise Set
Actual Time 7:22 AM CST 5:50 PM CST
Civil Twilight 6:56 AM CST 6:15 PM CST
Nautical Twilight 6:27 AM CST 6:44 PM CST
Astronomical Twilight 5:59 AM CST 7:13 PM CST
Moon 12:55 PM CST (1/2) 1:31 AM CST (1/2)
Length of Visible Light 11h 19m
Length of Day
10h 28m
Waxing Gibbous, 64% of the Moon is Illuminated
Jan 2
Waxing Gibbous
Jan 9
Full
Jan 16
Last Quarter
Jan 23
New
Jan 30
First Quarter

Hourly Weather History & Observations

Time (CST) Temp. Windchill Dew Point Humidity Pressure Visibility Wind Dir Wind Speed Gust Speed Precip Events Conditions
12:15 AM 50.0 °F - 30.2 °F 47% 30.55 in 10.0 mi North 8.1 mph - N/A   Clear
1:55 AM 48.2 °F - 30.2 °F 50% 30.54 in 10.0 mi NNW 9.2 mph - N/A   Clear
2:35 AM 48.2 °F - 30.2 °F 50% 30.55 in 10.0 mi North 6.9 mph - N/A   Clear
2:55 AM 46.4 °F 42.4 °F 30.2 °F 53% 30.55 in 10.0 mi North 8.1 mph - N/A   Clear
3:15 AM 46.4 °F 42.4 °F 30.2 °F 53% 30.55 in 10.0 mi North 8.1 mph - N/A   Clear
3:35 AM 46.4 °F 42.4 °F 30.2 °F 53% 30.56 in 10.0 mi North 8.1 mph - N/A   Clear
4:15 AM 46.4 °F 42.4 °F 30.2 °F 53% 30.57 in 10.0 mi North 8.1 mph 16.1 mph N/A   Clear
4:35 AM 46.4 °F 42.4 °F 30.2 °F 53% 30.57 in 10.0 mi North 8.1 mph - N/A   Clear
4:55 AM 44.6 °F 40.7 °F 30.2 °F 57% 30.58 in 10.0 mi NNW 6.9 mph - N/A   Clear
5:15 AM 44.6 °F 39.2 °F 30.2 °F 57% 30.58 in 10.0 mi NNW 10.4 mph - N/A   Clear
5:35 AM 44.6 °F 40.2 °F 30.2 °F 57% 30.59 in 10.0 mi North 8.1 mph - N/A   Clear
5:55 AM 44.6 °F 39.7 °F 30.2 °F 57% 30.60 in 10.0 mi NNW 9.2 mph - N/A   Clear
6:15 AM 44.6 °F 40.2 °F 30.2 °F 57% 30.60 in 10.0 mi NNW 8.1 mph - N/A   Clear
6:35 AM 44.6 °F 40.2 °F 30.2 °F 57% 30.60 in 10.0 mi North 8.1 mph - N/A   Clear
6:55 AM 44.6 °F 40.2 °F 30.2 °F 57% 30.61 in 10.0 mi North 8.1 mph - N/A   Clear
7:15 AM 44.6 °F 40.7 °F 30.2 °F 57% 30.63 in 10.0 mi NNW 6.9 mph - N/A   Clear
7:35 AM 42.8 °F 38.0 °F 30.2 °F 61% 30.64 in 10.0 mi NNW 8.1 mph - N/A   Clear
7:55 AM 44.6 °F 39.7 °F 30.2 °F 57% 30.65 in 10.0 mi NNW 9.2 mph - N/A   Clear
8:15 AM 44.6 °F 40.2 °F 30.2 °F 57% 30.66 in 10.0 mi NNW 8.1 mph - N/A   Clear
8:35 AM 46.4 °F 42.9 °F 30.2 °F 53% 30.68 in 10.0 mi North 6.9 mph - N/A   Clear
8:55 AM 50.0 °F - 30.2 °F 47% 30.69 in 10.0 mi North 8.1 mph - N/A   Clear
9:35 AM 51.8 °F - 28.4 °F 41% 30.71 in 10.0 mi NNE 11.5 mph 16.1 mph N/A   Clear
9:55 AM 53.6 °F - 26.6 °F 35% 30.72 in 10.0 mi NNE 11.5 mph 17.3 mph N/A   Clear
10:15 AM 55.4 °F - 24.8 °F 31% 30.73 in 10.0 mi NNE 13.8 mph 23.0 mph N/A   Clear
10:35 AM 57.2 °F - 23.0 °F 27% 30.73 in 10.0 mi NE 16.1 mph 20.7 mph N/A   Clear
10:55 AM 59.0 °F - 23.0 °F 25% 30.72 in 10.0 mi NNE 13.8 mph 19.6 mph N/A   Clear
11:15 AM 59.0 °F - 23.0 °F 25% 30.71 in 10.0 mi NNE 16.1 mph 20.7 mph N/A   Clear
11:35 AM 59.0 °F - 23.0 °F 25% 30.71 in 10.0 mi NNE 12.7 mph - N/A   Clear
11:55 AM 60.8 °F - 21.2 °F 22% 30.70 in 10.0 mi NE 15.0 mph 19.6 mph N/A   Clear
12:35 PM 62.6 °F - 17.6 °F 18% 30.68 in 10.0 mi NNE 15.0 mph - N/A   Clear
12:55 PM 62.6 °F - 15.8 °F 16% 30.66 in 10.0 mi NE 13.8 mph 18.4 mph N/A   Clear
1:15 PM 62.6 °F - 17.6 °F 18% 30.65 in 10.0 mi NNE 10.4 mph 17.3 mph N/A   Clear
1:35 PM 62.6 °F - 19.4 °F 19% 30.64 in 10.0 mi NE 8.1 mph - N/A   Clear
1:55 PM 62.6 °F - 17.6 °F 18% 30.63 in 10.0 mi ENE 8.1 mph 16.1 mph N/A   Clear
2:35 PM 64.4 °F - 17.6 °F 16% 30.62 in 10.0 mi East 4.6 mph - N/A   Clear
2:55 PM 64.4 °F - 17.6 °F 16% 30.61 in 10.0 mi NE 4.6 mph - N/A   Clear
3:15 PM 64.4 °F - 17.6 °F 16% 30.60 in 10.0 mi North 6.9 mph - N/A   Clear
3:35 PM 64.4 °F - 17.6 °F 16% 30.60 in 10.0 mi NNE 10.4 mph - N/A   Clear
3:55 PM 64.4 °F - 17.6 °F 16% 30.59 in 10.0 mi North 6.9 mph - N/A   Clear
4:15 PM 64.4 °F - 17.6 °F 16% 30.59 in 10.0 mi NNE 6.9 mph - N/A   Clear
4:35 PM 64.4 °F - 17.6 °F 16% 30.59 in 10.0 mi NE 5.8 mph - N/A   Clear
4:55 PM 62.6 °F - 17.6 °F 18% 30.59 in 10.0 mi North 6.9 mph - N/A   Clear
5:15 PM 62.6 °F - 17.6 °F 18% 30.59 in 10.0 mi North 8.1 mph - N/A   Clear
5:35 PM 60.8 °F - 17.6 °F 19% 30.60 in 10.0 mi NNE 4.6 mph - N/A   Clear
5:55 PM 59.0 °F - 19.4 °F 22% 30.60 in 10.0 mi Calm Calm - N/A   Clear
6:15 PM 59.0 °F - 19.4 °F 22% 30.60 in 10.0 mi Calm Calm - N/A   Clear
6:35 PM 55.4 °F - 19.4 °F 25% 30.61 in 10.0 mi North 3.5 mph - N/A   Clear
6:55 PM 53.6 °F - 19.4 °F 26% 30.61 in 10.0 mi Calm Calm - N/A   Clear
7:15 PM 51.8 °F - 21.2 °F 30% 30.61 in 10.0 mi Calm Calm - N/A   Clear
7:35 PM 50.0 °F - 21.2 °F 32% 30.62 in 10.0 mi Calm Calm - N/A   Clear
7:55 PM 46.4 °F - 23.0 °F 40% 30.62 in 10.0 mi Calm Calm - N/A   Clear
8:15 PM 46.4 °F - 23.0 °F 40% 30.62 in 10.0 mi Calm Calm - N/A   Clear
8:35 PM 46.4 °F - 23.0 °F 40% 30.62 in 10.0 mi Calm Calm - N/A   Clear
8:55 PM 44.6 °F - 26.6 °F 49% 30.62 in 10.0 mi Calm Calm - N/A   Clear
9:15 PM 44.6 °F 43.1 °F 24.8 °F 46% 30.63 in 10.0 mi South 3.5 mph - N/A   Clear
9:35 PM 44.6 °F - 24.8 °F 46% 30.63 in 10.0 mi Calm Calm - N/A   Clear
9:55 PM 42.8 °F 41.1 °F 24.8 °F 49% 30.63 in 10.0 mi WNW 3.5 mph - N/A   Clear
10:15 PM 41.0 °F - 26.6 °F 57% 30.63 in 10.0 mi Calm Calm - N/A   Clear
10:35 PM 42.8 °F - 26.6 °F 53% 30.63 in 10.0 mi Calm Calm - N/A   Clear
10:55 PM 41.0 °F - 26.6 °F 57% 30.63 in 10.0 mi Calm Calm - N/A   Clear
11:15 PM 41.0 °F - 26.6 °F 57% 30.63 in 10.0 mi Calm Calm - N/A   Clear
11:55 PM 41.0 °F 38.0 °F 26.6 °F 57% 30.61 in 10.0 mi WNW 4.6 mph - N/A   Clear